Effective Sunday, March 17, 2024, the National Weather Service National Data Buoy Center will discontinue its Dial-A-Buoy Interactive Voice Response system. For more information, see Service Change Notice 24-06 (PDF).

Station TCMW1 - 9446482 - Tacoma Met, WA Image indicating link to RSS feed of recent meteorological observations for station TCMW1


Conditions at TCMW1 as of
(12:48 pm PST)
2048 GMT on 02/26/2024:
     

Click on the graph icon in the table below to see a time series plot of the last five days of that observation.

5-day plot - Wind Direction Wind Direction (WDIR): W ( 270 deg true )
5-day plot - Wind Speed Wind Speed (WSPD): 7.0 kts
5-day plot - Wind Gust Wind Gust (GST): 9.9 kts
5-day plot - Wind Speed at 10 Meters Wind Speed at 10 meters (WSPD10M): 7.8 kts
5-day plot - Wind Speed at 20 Meters Wind Speed at 20 meters (WSPD20M): 7.8 kts
5-day plot -  Wind Speed, Wind Gust and Atmospheric Pressure Combined plot of Wind Speed, Gust, and Air Pressure
NOS Water Level Observation Network Water Level
Previous observations
TIME
(PST)
5-day plot - Wind Direction
WDIR
 
5-day plot - Wind Speed
WSPD
kts
5-day plot - Wind Gust
GST
kts
5-day plot - Wave Height
WVHT
ft
5-day plot - Dominant Wave Period
DPD
sec
5-day plot - Average Wave Period
APD
sec
5-day plot - Mean Wave Direction
MWD
 
5-day plot - Atmospheric Pressure
PRES
in
5-day plot - Pressure Tendency
PTDY
in
5-day plot - Air Temperature
ATMP
°F
5-day plot - Water Temperature
WTMP
°F
5-day plot - Dew Point
DEWP
°F
5-day plot - Salinity
SAL
psu
5-day plot - Visibility
VIS
nmi
5-day plot - Tide (above MLLW)
TIDE
ft
2024-02-26 12:42 pm W 8.0 12.0------------
2024-02-26 12:36 pmWSW 8.9 13.0------------
2024-02-26 12:30 pm W 7.0 8.9------ 41.2-----
2024-02-26 12:24 pm W 7.0 9.9------ 41.0-----
2024-02-26 12:18 pm W 8.9 11.1------ 41.0-----
2024-02-26 12:12 pm W 8.0 12.0------ 40.8-----
2024-02-26 12:06 pm W 7.0 12.0------ 40.6-----
2024-02-26 12:00 pm SW 5.1 8.9------ 40.8-----
2024-02-26 11:54 amSSW 7.0 12.0------ 40.6-----
2024-02-26 11:48 am SW 8.9 12.0------ 40.6-----
2024-02-26 11:42 am SW 8.9 12.0------ 40.5-----
2024-02-26 11:36 amWSW 9.9 13.0------ 40.5-----
2024-02-26 11:18 am SW 7.0 12.0------ 40.6-----
2024-02-26 11:12 amWSW 9.9 11.1------ 40.5-----
2024-02-26 11:06 amWSW 11.1 14.0------ 40.1-----
2024-02-26 11:00 am W 12.0 15.9------ 40.1-----
2024-02-26 10:54 amWSW 8.9 12.0------ 40.3-----
2024-02-26 10:48 am W 11.1 15.0------ 40.1-----
2024-02-26 10:42 amWSW 11.1 14.0------ 39.9-----
2024-02-26 10:36 am W 12.0 15.0------ 39.9-----
2024-02-26 10:30 amWSW 9.9 12.0------ 39.9-----
2024-02-26 10:24 amWSW 9.9 13.0------ 40.1-----
2024-02-26 10:18 am W 12.0 14.0------ 39.7-----
2024-02-26 10:12 amWSW 8.9 12.0------ 39.9-----
2024-02-26 09:54 amSSW 4.1 12.0------ 39.7-----
2024-02-26 09:48 am SW 9.9 13.0------ 39.4-----
2024-02-26 09:42 am SW 7.0 12.0------ 39.6-----
2024-02-26 09:36 am SW 6.0 14.0------ 39.4-----
2024-02-26 09:30 amWSW 8.9 12.0------ 39.2-----
2024-02-26 09:24 amSSW 6.0 9.9------ 39.2-----
2024-02-26 09:18 am SW 6.0 8.9------ 39.2-----
2024-02-26 09:12 amSSW 5.1 8.0------ 38.8-----
2024-02-26 09:06 am S 1.9 7.0------ 38.8-----
2024-02-26 09:00 am S 5.1 8.0------ 38.7-----
2024-02-26 08:54 am SW 4.1 9.9------ 38.3-----
2024-02-26 08:48 am S 4.1 6.0------ 38.1-----
2024-02-26 08:42 am S 7.0 13.0------ 37.9-----
2024-02-26 08:36 am SW 7.0 11.1------ 37.8-----
2024-02-26 08:30 am SW 4.1 8.9------ 37.8-----
2024-02-26 08:24 amSSW 5.1 11.1------ 37.6-----
2024-02-26 08:18 am S 4.1 11.1------ 37.4-----
2024-02-26 08:12 amSSW 8.0 11.1------ 37.2-----
2024-02-26 08:06 amSSW 6.0 9.9------ 37.2-----
2024-02-26 08:00 am SE 2.9 8.9------ 36.9-----
2024-02-26 07:54 amESE 5.1 8.9------ 36.9-----
2024-02-26 07:48 amESE 5.1 6.0------ 36.7-----
2024-02-26 07:42 amESE 5.1 7.0------ 36.9-----
2024-02-26 07:36 amSSE 5.1 7.0------ 36.9-----
2024-02-26 07:30 am S 5.1 7.0------ 36.9-----
2024-02-26 07:24 amSSE 4.1 8.9------ 36.7-----
2024-02-26 07:18 am S 2.9 8.9------ 36.7-----
2024-02-26 07:12 am SE 2.9 7.0------ 36.9-----
2024-02-26 07:06 am S 5.1 8.9------ 37.0-----
2024-02-26 07:00 am S 8.9 13.0------ 37.0-----
2024-02-26 06:54 am S 6.0 11.1------ 37.2-----
2024-02-26 06:48 am S 6.0 12.0------ 37.2-----
2024-02-26 06:42 amSSW 8.9 12.0------ 37.8-----
2024-02-26 06:36 am SW 7.0 15.0------ 38.1-----
2024-02-26 06:30 am SW 9.9 15.0------ 38.5-----
2024-02-26 06:24 amWSW 13.0 19.0------ 38.5-----
2024-02-26 06:18 am SW 11.1 15.0------ 38.5-----
2024-02-26 06:12 am SW 8.0 11.1------ 38.3-----
2024-02-26 06:06 am S 2.9 14.0------ 37.6-----
2024-02-26 06:00 amESE 4.1 6.0------ 37.4-----
2024-02-26 05:54 am S 4.1 9.9------ 37.4-----
2024-02-26 05:48 am SE 1.0 7.0------ 37.2-----
2024-02-26 05:42 amESE 4.1 5.1------ 37.2-----
2024-02-26 05:36 am SE 2.9 4.1------ 37.8-----
2024-02-26 05:30 am S 2.9 6.0------ 37.8-----
2024-02-26 05:24 am S 1.9 5.1------ 37.8-----
2024-02-26 05:18 am SE 1.9 4.1------ 37.8-----
2024-02-26 05:12 am S 4.1 7.0------ 37.8-----
2024-02-26 05:06 amSSE 1.9 7.0------ 37.6-----
2024-02-26 05:00 amSSE 2.9 6.0------ 37.8-----
2024-02-26 04:54 amESE 1.9 8.9------ 37.9-----
2024-02-26 04:48 amSSE 1.0 5.1------ 37.9-----
2024-02-26 04:42 am S 2.9 9.9------ 37.9-----
2024-02-26 04:36 amSSW 6.0 11.1------ 38.1-----
2024-02-26 04:06 am SW 14.0 19.0------ 38.8-----
2024-02-26 04:00 am SW 15.0 24.1------ 38.8-----
2024-02-26 03:54 am SW 14.0 20.0------ 38.7-----
2024-02-26 03:48 am SW 12.0 20.0------ 38.8-----
2024-02-26 03:42 am SW 11.1 15.0------ 38.8-----
2024-02-26 03:36 amSSW 8.0 14.0------ 38.8-----
2024-02-26 03:30 am S 12.0 19.0------ 39.0-----
2024-02-26 03:24 amSSW 12.0 18.1------ 38.8-----
2024-02-26 03:18 amSSW 12.0 18.1------ 39.2-----
2024-02-26 03:12 amSSW 14.0 17.1------ 39.4-----
2024-02-26 03:06 amSSW 13.0 19.0------ 39.6-----
2024-02-26 03:00 am SW 15.0 22.9------ 39.7-----
2024-02-26 02:54 am SW 15.9 21.0------ 39.9-----
2024-02-26 02:48 am SW 18.1 22.9------ 40.3-----
2024-02-26 02:42 amSSW 15.0 20.0------ 39.9-----
2024-02-26 02:36 am SW 15.9 22.9------ 40.3-----
2024-02-26 02:30 am SW 15.9 22.0------ 40.5-----
2024-02-26 02:24 am SW 14.0 20.0------ 40.5-----
2024-02-26 02:18 am SW 15.0 19.0------ 40.5-----
2024-02-26 02:12 amSSW 14.0 19.0------ 40.5-----
2024-02-26 02:06 am SW 15.0 21.0------ 40.6-----
2024-02-26 02:00 am SW 15.9 22.0------ 40.6-----
2024-02-26 01:54 am SW 17.1 21.0------ 40.8-----
2024-02-26 01:48 am SW 17.1 21.0------ 40.8-----
2024-02-26 01:42 am SW 15.9 24.1------ 40.8-----
2024-02-26 01:36 am SW 15.0 19.0------ 40.8-----
2024-02-26 01:30 am SW 15.0 19.0------ 40.8-----
2024-02-26 01:24 am SW 12.0 20.0------ 40.8-----
2024-02-26 01:18 am SW 11.1 18.1------ 40.6-----
2024-02-26 01:12 am SW 8.9 14.0------ 40.6-----
2024-02-26 01:06 amWSW 12.0 14.0------ 41.0-----
2024-02-26 01:00 am SW 5.1 8.0------ 41.0-----
2024-02-26 12:54 amWSW 8.9 14.0------ 41.2-----
2024-02-26 12:48 amSSW 4.1 8.0------ 41.2-----
2024-02-26 12:42 am SW 2.9 8.9------ 41.2-----
2024-02-26 12:36 amWSW 2.9 9.9------ 41.2-----
2024-02-26 12:30 amWSW 8.9 14.0------ 41.4-----
2024-02-26 12:24 am SW 8.0 11.1------ 41.4-----
2024-02-26 12:18 am S 4.1 7.0------ 41.4-----
2024-02-26 12:12 amWSW 7.0 9.9------ 41.7-----
2024-02-26 12:06 amWSW 8.0 9.9------ 41.7-----
2024-02-26 12:00 am W 4.1 8.0------ 41.7-----
2024-02-25 11:54 pm SW 5.1 11.1------ 41.5-----
2024-02-25 11:48 pm SW 5.1 13.0------ 41.7-----
2024-02-25 11:42 pmWSW 8.9 12.0------ 41.7-----
2024-02-25 11:36 pmWSW 6.0 11.1------ 41.7-----
2024-02-25 11:30 pmWSW 9.9 14.0------ 41.9-----
2024-02-25 11:24 pmWSW 8.0 15.0------ 42.1-----
2024-02-25 11:18 pmWSW 9.9 14.0------ 42.1-----
2024-02-25 11:12 pm SW 12.0 22.9------ 42.1-----
2024-02-25 11:06 pmWSW 11.1 15.9------ 42.1-----
2024-02-25 11:00 pmWSW 12.0 18.1------ 42.1-----
2024-02-25 10:54 pmWSW 13.0 19.0------ 42.3-----
2024-02-25 10:48 pmWSW 17.1 21.0------ 42.4-----
2024-02-25 10:42 pmWSW 15.0 20.0------ 42.4-----
2024-02-25 10:36 pmWSW 18.1 24.1------ 42.6-----
2024-02-25 10:30 pmWSW 19.0 22.9------ 42.8-----
2024-02-25 10:24 pmWSW 18.1 24.1------ 43.0-----
2024-02-25 10:12 pmWSW 17.1 22.9------ 43.3-----
2024-02-25 10:06 pm SW 13.0 19.0------ 43.2-----
2024-02-25 10:00 pm SW 13.0 19.0------ 43.0-----
2024-02-25 09:54 pm SW 13.0 17.1------ 43.0-----
2024-02-25 09:48 pm SW 12.0 19.0------ 43.0-----
2024-02-25 09:42 pmWSW 15.0 18.1------ 43.0-----
2024-02-25 09:36 pmWSW 12.0 18.1------ 43.0-----
2024-02-25 09:30 pm SW 11.1 14.0------ 43.2-----
2024-02-25 09:24 pmWSW 8.9 13.0------ 43.3-----
2024-02-25 09:18 pm SW 9.9 18.1------ 43.2-----
2024-02-25 09:12 pm SW 9.9 17.1------ 43.2-----
2024-02-25 09:06 pm SW 12.0 19.0------ 43.3-----
2024-02-25 09:00 pm SW 18.1 22.9------ 43.3-----
2024-02-25 08:54 pmSSW 17.1 26.0------ 43.3-----
2024-02-25 08:48 pm SW 15.0 21.0------ 43.5-----
2024-02-25 08:42 pmSSW 14.0 27.0------ 43.5-----
2024-02-25 08:36 pm SW 15.0 28.0------ 43.7-----
2024-02-25 08:30 pm SW 17.1 22.9------ 43.7-----
2024-02-25 08:24 pm SW 17.1 22.0------ 43.7-----
2024-02-25 08:18 pmWSW 21.0 27.0------ 43.9-----
2024-02-25 08:12 pm SW 15.9 22.9------ 43.9-----
2024-02-25 08:06 pm SW 15.9 21.0------ 43.9-----
2024-02-25 07:42 pm SW 14.0 21.0------ 44.1-----
2024-02-25 07:36 pmSSW 13.0 20.0------ 44.1-----
2024-02-25 07:30 pm SW 14.0 24.1------ 44.2-----
2024-02-25 07:24 pm SW 17.1 26.0------ 44.4-----
2024-02-25 07:00 pmWSW 21.0 28.0------ 44.6-----
2024-02-25 06:54 pm SW 22.0 29.9------ 44.8-----
2024-02-25 06:48 pmWSW 19.0 24.1------ 45.0-----
2024-02-25 06:42 pm SW 18.1 22.9------ 45.1-----
2024-02-25 06:36 pm SW 20.0 26.0------ 45.3-----
2024-02-25 06:30 pm SW 19.0 25.1------ 45.7-----
2024-02-25 06:24 pm SW 18.1 28.0------ 46.2-----
2024-02-25 06:12 pmWSW 24.1 28.9------ 46.8-----
2024-02-25 06:00 pm SW 22.9 32.1------ 47.3-----
2024-02-25 05:54 pm SW 19.0 26.0------ 47.8-----
2024-02-25 05:48 pm SW 20.0 28.0------ 48.2-----
2024-02-25 05:42 pm SW 20.0 27.0------ 48.6-----
2024-02-25 05:36 pm SW 15.9 27.0------ 48.6-----
2024-02-25 05:30 pm SW 15.0 25.1------ 48.7-----
2024-02-25 05:24 pmWSW 15.9 24.1------ 48.9-----
2024-02-25 05:18 pm SW 15.0 22.0------ 48.9-----
2024-02-25 05:12 pmSSW 15.0 21.0------ 49.1-----
2024-02-25 05:06 pmSSW 15.0 20.0------ 49.3-----
2024-02-25 05:00 pm SW 15.0 22.0------------
2024-02-25 04:54 pm SW 15.9 20.0------------
2024-02-25 04:48 pm SW 13.0 15.9------ 49.1-----
2024-02-25 04:42 pm SW 12.0 20.0------ 48.6-----
2024-02-25 04:36 pm SW 15.9 26.0------ 49.1-----
2024-02-25 04:30 pm SW 12.0 18.1------ 49.1-----
2024-02-25 04:24 pm SW 13.0 19.0------ 49.5-----
2024-02-25 04:18 pm SW 15.0 24.1------------
2024-02-25 04:12 pm SW 17.1 22.9------------
2024-02-25 04:00 pm SW 18.1 24.1------------
2024-02-25 03:36 pmSSW 14.0 22.0------ 50.5-----
2024-02-25 03:30 pm SW 14.0 21.0------ 50.5-----
2024-02-25 03:18 pmSSW 12.0 20.0------ 50.4-----
2024-02-25 03:00 pm SW 11.1 20.0------ 50.4-----
2024-02-25 02:54 pmSSW 12.0 19.0------ 50.5-----
2024-02-25 02:48 pmSSW 12.0 15.9------ 50.4-----
2024-02-25 02:42 pmSSW 11.1 18.1------ 50.2-----
2024-02-25 02:36 pmSSW 15.9 20.0------ 50.2-----
2024-02-25 02:30 pmSSW 12.0 19.0------ 50.2-----
2024-02-25 02:24 pmSSW 9.9 15.9------ 50.0-----
2024-02-25 02:18 pmSSW 14.0 20.0------ 50.0-----
2024-02-25 02:12 pmSSW 12.0 21.0------ 49.6-----
2024-02-25 02:06 pmSSW 13.0 18.1------ 49.6-----
2024-02-25 02:00 pm S 9.9 17.1------ 49.5-----
2024-02-25 01:54 pm S 12.0 17.1------ 49.3-----
2024-02-25 01:48 pmSSW 9.9 15.0------------
2024-02-25 01:42 pm S 8.0 13.0------------
2024-02-25 01:36 pm S 7.0 14.0------------
2024-02-25 01:30 pm S 6.0 12.0------------
2024-02-25 01:24 pm S 6.0 11.1------------
2024-02-25 01:18 pm S 8.0 13.0------ 49.3-----
2024-02-25 01:12 pm S 7.0 15.0------ 49.1-----
2024-02-25 01:06 pm S 8.9 17.1------ 48.9-----
2024-02-25 01:00 pm S 7.0 17.1------------
2024-02-25 12:54 pm S 9.9 14.0------------